Flag for Jordan Weather past 2 weeks in Amman, Jordan

Now
82 °F

Haze.


Feels Like: 81 °F
Forecast: 65 / 85 °F
Wind: 14 mph from West

Location: Amman Airport

Current Time: Jul 7, 2015 at 12:36:29 PM

Latest Report: Jul 7, 2015 at 12:00 PM


Visibility: 3 mi

Pressure: 29.92 "Hg (27.27 "Hg at 816m altitude)

Humidity: 28%

Dew point: 46 °F

Location of AmmanLocation

Historic Weather in Amman — Graph

°F

Amman temperature yesterday

Maximum temperature yesterday: 102 °F (at 7:00 PM)
Minimum temperature yesterday: 72 °F (at 2:00 AM)
Average temperature yesterday: 82 °F

Past Weeks' High & Low Weather Summary

 TemperatureHumidityPressure
High102 °F (Jul 6, 7:00 PM)88% (Jun 27, 6:00 AM)30.07 "Hg (Jun 27, 6:00 AM)
Low59 °F (Jun 24, 6:00 AM)14% (Jul 1, 3:00 PM)29.80 "Hg (Jun 28, 1:00 AM)
Average75 °F44%29.94 "Hg
* Reported Jun 22 11:00 AM — Jul 7 11:00 AM, Amman, Weather by CustomWeather, © 2015

Note: Actual official high and low records may vary slightly from our data, if they occured in-between our weather recording intervals... More about our weather records

Advertising

Amman weather history for previous 24 hours

 ConditionsComfort  
Time TempWeatherWind HumidityBarometerVisibility
11:00 AM
Tue, Jul 7
81 °FHaze.9 mph26%29.92 "Hg3 mi
10:00 AM79 °FHaze.14 mph26%29.95 "Hg3 mi
9:00 AM75 °FHaze.7 mph36%29.92 "Hg3 mi
8:00 AM73 °FHaze.7 mph41%29.92 "Hg2 mi
7:00 AM70 °FHaze.5 mph50%29.92 "Hg2 mi
6:00 AM66 °FHaze.5 mph52%29.92 "Hg3 mi
5:00 AM68 °FHaze.6 mph46%29.92 "Hg3 mi
4:00 AM70 °FHaze.6 mph43%29.92 "Hg3 mi
3:00 AM73 °FHaze.5 mph33%29.92 "Hg3 mi
2:00 AM73 °FHaze.9 mph33%29.92 "Hg3 mi
1:00 AM75 °FHaze.7 mph31%29.92 "Hg3 mi
12:00 AM73 °FHaze.No wind38%29.95 "Hg3 mi
11:00 PM
Mon, Jul 6
75 °FHaze.8 mph39%29.95 "Hg3 mi
10:00 PM75 °FHaze.5 mph44%29.95 "Hg3 mi
9:00 PM79 °FHaze.5 mph42%29.92 "Hg3 mi
8:00 PM81 °FHaze.10 mph39%29.92 "Hg3 mi
7:00 PM102 °FHaze.14 mph16%29.92 "Hg3 mi
6:00 PM86 °FHaze.12 mph29%29.92 "Hg3 mi
5:00 PM88 °FHaze.16 mph27%29.92 "Hg3 mi
4:00 PM90 °FHaze.16 mph21%29.92 "Hg3 mi
3:00 PM91 °FHaze.14 mph16%29.95 "Hg3 mi
2:00 PM91 °FHaze.14 mph15%29.95 "Hg3 mi
1:00 PM90 °FHaze.12 mph15%29.95 "Hg3 mi
12:00 PM88 °FHaze.9 mph18%29.95 "Hg3 mi
Weather by CustomWeather, © 2015

See weather overviewHow to use our weather pages